Location: Ku?niki
(51.4449°N, 17.8974°E)
Time: 00:59:43
(UTC+00:00)

First-Move - Pass Details

Date: 03 July 2022
Orbit: 572 x 658 km, 97.6° (Epoch: 07 August)

Event Time Altitude Azimuth Distance (km) Brightness Sun altitude
Rises 01:37:56 0° 28° (NNE) 2,952 ? -7.2°
Reaches altitude 10° 01:41:00 10° 51° (NE) 2,052 ? -6.9°
Maximum altitude 01:43:39 15° 88° (E) 1,726 ? -6.7°
Drops below altitude 10° 01:46:19 10° 124° (SE) 2,062 ? -6.4°
Sets 01:49:25 0° 147° (SSE) 2,975 ? -6.1°
